Regional Weather Roundup
Issued by NWS

Home | Current Version | Previous Version | Text Only | Print | Product List | Glossary Off
Versions: 1 2 3 4 5 6 7 8 9 10 11 12 13 14 15 16 17 18 19 20 21 22 23 24 25 26 27 28 29 30 31 32 33 34 35 36 37 38 39 40 41 42 43 44 45 46 47 48 49 50

000
ASUS43 KFSD 230610
RWRSD

WEATHER ROUNDUP FOR SOUTH DAKOTA
NATIONAL WEATHER SERVICE SIOUX FALLS SD
100 AM CDT TUE AUG 23 2016

NOTE: "FAIR" INDICATES FEW OR NO CLOUDS BELOW 12,000 FEET WITH NO
SIGNIFICANT WEATHER AND/OR OBSTRUCTIONS TO VISIBILITY.


SDZ001>005-009-010-012>017-230700-
NORTHWEST AND NORTH CENTRAL SOUTH DAKOTA

CITY           SKY/WX    TMP DP  RH WIND       PRES   REMARKS
BUFFALO          N/A     72  50  45 W6        29.60F
FAITH            N/A     76  48  37 SE8       29.65F
MOBRIDGE       CLEAR     78  59  51 SE9       29.59R
$$

SDZ012>016-024>037-041>051-057-063-072>074-230700-
SOUTHWEST AND SOUTH CENTRAL SOUTH DAKOTA

CITY           SKY/WX    TMP DP  RH WIND       PRES   REMARKS
RAPID CTY ARPT CLEAR     62  45  53 SE5       29.70R
PIERRE         PTCLDY    77  59  53 S15       29.66R
CUSTER         CLEAR     66  29  24 W5        29.90S
ELLSWORTH AFB  PTCLDY    67  46  47 W10       29.69S
PHILIP         PTCLDY    81  58  45 S15       29.65F
PINE RIDGE     CLEAR     76  57  51 S21G29    29.77F
WINNER         FAIR      80  61  52 S25G36    29.73S
$$

SDZ004>011-016>023-039-040-230700-
NORTHEAST SOUTH DAKOTA

CITY           SKY/WX    TMP DP  RH WIND       PRES   REMARKS
ABERDEEN       CLOUDY    74  63  68 S18G29    29.69S
WATERTOWN      CLOUDY    72  62  71 S18G26    29.80S
BROOKINGS      PTCLDY    70  60  70 MISG      29.85
SISSETON         N/A     77  63  61 SW18G31   29.70S
$$

SDZ017-020-022-023-036>040-048>070-230700-
SOUTHEAST SOUTH DAKOTA

CITY           SKY/WX    TMP DP  RH WIND       PRES   REMARKS
SIOUX FALLS    PTCLDY    73  60  63 S18G28    29.88S
HURON          CLOUDY    73  62  68 S16       29.75R
CHAMBERLAIN    CLOUDY    80  63  55 S16G30    29.74R
MITCHELL       MOCLDY    74  62  66 S16G24    29.79S
YANKTON        PTCLDY    73  55  53 S17G23    29.85S
$$

ABBREVIATIONS USED IN REMARKS
   TC - TEMPERATURE IN CELSIUS
  WCI - WIND CHILL INDEX
   HX - HEAT INDEX
  VSB - VISIBILITY





USA.gov is the U.S. government's official web portal to all federal, state and local government web resources and services.